Location: Cran-Gévrier
(45.9039°N, 6.1012°E)
Time: 10:09:50
(UTC+00:00)

Cosmos 2360 Rocket - Pass Details

Date: 09 February 2023
Orbit: 832 x 846 km, 71.0° (Epoch: 20 March)

Event Time Altitude Azimuth Distance (km) Brightness Sun altitude
Rises 18:12:11 0° 233° (SW) 3,381 6.4 -14.3°
Reaches altitude 10° 18:14:50 10° 243° (WSW) 2,452 5.7 -14.7°
Maximum altitude 18:19:56 34° 307° (NW) 1,359 3.7 -15.6°
Drops below altitude 10° 18:25:04 10° 12° (NNE) 2,473 4.5 -16.5°
Sets 18:27:46 0° 22° (NNE) 3,414 5.1 -17.0°
